Briefing drone pour Plombieres-les-dijon

Rechercher une autre localisation

Conditions de vol :


Nous sommes le : Vendredi 07 mai 2021
Il est 00:32 UTC (02:32 LT)

Lever de soleil : 03:47 UTC (05:47 LT)
Coucher de soleil : 19:25 UTC (21:25 LT)

Météo

L'essentiel des conditions de vol

VIGILANCE MÉTÉO FRANCE - Côte-dOr (21)
Vigilance Jaune : Vent violent / Orages
CARTE TEMSI
CARTES DES FRONTS
METAR de LFSD
LFSD 070000Z AUTO VRB02KT 9999 FEW028/// BKN048/// BKN062/// ///TCU 10/08 Q1010

Date d'émission: 07/05/2021
Heure d'émission: 00:00 UTC
Vent: Variable 2 KT (4 km/h)
Visibilité horizontale: > 10 km
Plafond :
- Peu de nuages à 2800ft (853m)
- Nuages morcelés à 4800ft (1463m)
- Nuages morcelés à 6200ft (1890m)
Température: 10 °C
Point de rosée: 8 °C
Humidité: 87%
Pression (QNH): 1010 hPa
TAF de LFSD
LFSD 010600Z 0100/0124 CNL

Conditions prévues :

Heure d'émission : Bulletin éffectué le 01 à 00:00 UTC
Prévision : Valide du 01 a 00:00 UTC au 01 a 23:59 UTC
Nuages : à 0ft (0 m)
WEBCAM POUR PLOMBIERES-LES-DIJON

Réglementation

Voler en sécurité

CARTES AERONAUTIQUE 1/500.000
CARTES VAC (LFSD)
SUP AIP




Chargement des AIP...
NOTAM (PLOMBIERES-LES-DIJON + Terrain à proximité / FIR )




Chargement des NOTAMS...
CONTACT PREFECTURE 21
Côte-dOr (21) : pref-drone@cote-dor.gouv.fr


Avertissement : Les données mises à disposition sont indicatives. Oxygène Drone ne pourra être tenu responsable de dégâts causés aux biens et aux personnes.